Back to catalog

IGS O-8

AliveMilitarySSO
NORAD 58762·PAYLOAD·🇯🇵 Japan

Launched Jan 12, 2024 from Tanegashima Space Center

Loading…

Next Passes (next 24 hours)

TLE

StaleSource: Mike McCants

Epoch: Aug 13, 2026, 00:41 UTC

1 58762U 24010A   26225.02905224 0.00000000  00000-0  00000-0 0    09
2 58762  97.3453 346.1533 0000980 330.0712  29.9286 15.27638576    05

Track IGS O-8 in real time with AllMySat

Download on the App Store